Wind_Speed
19 20 21 23 25 26 28 31 33 35 34 29 20 17 14 13 15 19 22 20 18 17 18 17 13 9 4 8 2 5 8 7 7 3 7 10 9 9 13 15 13 13 14 15 17 22 23 17 19 21 22 23 25 27
17 19 20 21 23 25 26 28 31 33 33 32 23 17 14 13 13 15 16 19 19 18 16 14 12 7 3 5 7 6 4 11 2 5 9 5 1 6 9 9 18 18 17 18 16 18 17 16 17 18 19 21 17 18
16 17 19 21 22 24 25 27 29 31 32 32 28 20 16 15 13 13 12 15 16 15 15 16 14 10 9 6 2 4 6 7 3 3 4 5 4 2 4 8 8 13 13 14 13 15 15 17 19 19 20 22 27 31
14 16 17 20 21 21 23 25 27 29 31 32 30 24 17 16 15 14 14 15 14 12 13 12 12 12 10 5 6 4 6 0 2 4 8 4 3 4 6 6 5 8 9 10 11 14 16 19 22 23 26 28 31 33
14 14 15 17 20 20 21 23 25 27 29 31 31 28 22 15 14 12 10 10 11 12 13 12 9 10 11 4 5 0 3 8 5 3 3 4 5 1 2 4 8 9 11 12 16 19 23 26 29 31 32 32 34 35
14 15 15 16 18 20 20 21 23 25 27 29 30 30 27 20 14 12 11 13 11 13 14 14 11 8 6 4 1 5 5 5 5 6 6 7 8 7 7 9 14 16 18 18 21 23 24 23 23 24 26 28 26 27
12 14 15 16 17 19 20 20 21 23 24 26 28 29 29 27 20 14 13 14 14 15 18 17 14 9 3 3 1 2 4 7 7 8 9 9 7 8 7 12 15 16 16 16 13 13 14 15 17 17 16 18 22 24
12 13 14 16 17 18 19 19 19 21 22 23 26 27 28 28 25 19 14 14 14 16 17 18 13 5 5 4 4 1 2 2 2 4 6 9 13 17 17 15 17 19 17 17 13 14 11 10 11 11 13 16 21 23
13 14 15 16 17 18 19 19 19 19 20 21 23 25 25 26 27 24 20 14 11 11 14 18 12 4 6 5 6 6 6 6 6 9 10 10 15 16 16 20 21 17 18 16 11 8 4 3 7 12 15 18 22 26
11 13 14 15 17 18 19 19 19 18 19 19 19 21 22 24 25 26 23 19 14 10 11 14 10 4 1 4 6 6 8 9 9 9 11 15 16 15 16 16 9 10 12 9 7 4 3 7 10 12 16 20 24 29
9 11 13 15 16 17 18 18 18 19 18 18 18 18 19 21 22 23 23 22 20 16 11 10 10 5 0 3 6 7 9 10 9 10 11 12 10 10 11 9 2 6 8 8 6 3 3 5 9 13 18 22 26 30
10 11 13 15 16 17 18 18 17 17 17 17 18 17 18 17 19 20 21 21 21 19 16 12 9 8 5 5 7 9 8 8 8 8 11 9 8 6 7 6 4 6 8 8 8 7 6 7 11 15 17 21 24 29
15 13 13 15 17 18 18 19 18 18 17 17 16 16 15 16 16 17 18 19 19 20 19 16 12 11 9 9 7 8 7 7 6 7 8 6 8 8 5 6 8 9 10 12 12 12 13 13 14 15 17 19 22 25
18 17 16 16 16 18 19 20 19 19 19 18 16 15 15 15 14 13 15 16 16 17 18 18 17 14 12 9 8 7 8 9 10 10 10 10 10 12 13 12 15 17 18 17 17 17 17 18 17 16 15 16 18 20
22 21 19 19 18 18 20 20 20 20 19 20 20 16 14 13 12 12 11 12 13 14 15 16 16 16 15 12 9 9 10 9 12 16 17 17 15 16 18 22 23 22 22 22 21 22 22 21 20 18 16 15 16 16
25 23 23 21 21 21 21 22 23 21 20 20 22 22 17 16 13 13 12 10 10 11 12 12 13 14 14 15 14 15 14 15 17 20 18 19 21 22 23 24 27 28 30 30 30 30 30 29 28 25 22 20 19 18
28 25 25 24 24 23 23 24 25 25 23 22 22 23 21 19 17 16 16 14 12 11 11 12 12 12 13 13 14 15 16 16 18 18 18 20 22 25 27 30 32 33 34 36 36 35 34 33 32 30 28 26 25 22
32 28 27 27 26 24 24 23 24 25 26 26 24 24 23 21 20 18 17 18 17 16 14 13 12 14 13 12 13 15 16 17 18 19 20 22 23 25 26 30 34 38 40 40 41 42 41 40 39 37 35 33 29 26
34 32 29 28 27 27 26 23 25 26 28 28 29 27 23 24 24 21 19 19 20 20 18 17 16 14 15 14 14 15 15 17 18 20 21 23 24 25 26 28 30 33 34 36 40 45 49 49 47 45 43 37 32 28
35 34 32 31 30 29 29 26 26 26 29 30 31 29 27 25 26 25 23 22 22 21 22 21 21 19 17 17 17 17 18 19 20 21 23 24 26 27 28 29 29 30 33 35 38 39 40 41 42 42 42 40 40 36
37 37 36 34 33 32 31 28 27 28 29 31 32 32 29 28 26 27 25 23 23 21 22 26 24 23 21 20 19 19 20 20 22 23 24 26 27 29 31 33 33 34 34 35 36 39 41 38 37 39 41 40 36 39
41 40 39 38 37 35 31 28 28 27 29 31 36 36 31 25 25 27 26 26 24 23 25 25 25 24 24 23 22 21 21 21 22 24 25 26 28 30 32 34 36 36 37 36 35 35 36 39 38 36 39 42 44 37
40 39 39 40 39 39 32 27 27 29 31 32 35 37 35 29 27 28 26 26 28 28 26 25 24 23 24 24 23 23 22 22 22 24 25 27 29 30 32 35 37 38 38 38 34 30 26 26 27 32 35 37 40 37
34 34 35 38 39 37 34 29 28 27 27 31 36 40 39 34 31 29 26 26 30 28 28 27 25 23 22 23 23 23 22 22 23 23 25 27 29 31 33 35 38 40 40 39 35 29 25 21 19 22 30 35 39 38
35 35 38 39 38 36 34 29 29 30 29 33 38 41 39 35 30 28 26 27 26 24 23 23 24 22 21 22 22 22 22 22 23 23 25 26 27 32 34 36 38 40 41 39 35 28 23 20 16 17 22 28 34 42
38 39 40 40 38 35 34 32 31 29 31 35 40 41 37 32 27 24 19 17 15 15 17 20 22 23 22 22 22 22 22 22 23 23 24 25 27 33 36 36 38 40 41 39 36 29 23 19 16 15 18 21 26 30
41 41 41 39 35 35 34 31 30 31 34 38 40 39 36 30 26 24 21 20 22 24 26 26 24 23 22 23 23 22 22 22 23 23 24 25 28 32 35 36 37 39 40 39 36 31 24 21 17 14 15 18 20 22
40 39 36 35 35 34 33 32 33 35 38 40 40 35 31 27 26 26 26 27 28 29 30 30 26 23 23 23 23 22 22 22 23 23 24 25 28 31 34 35 36 38 39 39 36 32 27 22 19 16 14 14 14 15
37 34 34 35 35 34 34 33 35 37 38 37 34 29 25 24 25 28 27 28 28 27 29 27 24 22 22 24 24 22 22 22 22 23 24 25 27 30 33 34 35 36 38 38 36 33 29 24 20 17 15 14 13 14
34 33 32 32 33 34 34 35 35 36 36 33 27 25 25 27 29 29 26 25 27 27 25 22 22 22 24 24 24 23 21 21 22 23 25 25 27 30 32 32 33 35 36 37 36 33 30 26 22 18 16 14 14 15
30 30 32 33 31 31 33 33 33 33 33 33 33 32 32 32 31 31 31 30 28 26 23 20 23 23 23 24 23 22 21 21 22 24 25 24 26 29 31 31 31 33 35 36 36 33 31 29 25 21 18 16 14 15
34 34 35 35 34 35 35 36 36 35 32 32 33 34 34 34 33 31 33 32 30 26 24 23 23 23 23 22 22 22 20 20 22 23 24 24 26 29 32 32 31 31 33 35 36 35 32 31 28 24 21 19 18 18
32 33 33 34 33 33 34 35 33 31 31 31 30 29 28 28 25 26 27 27 24 23 24 23 22 22 23 23 22 20 20 21 23 23 23 25 26 29 32 32 31 30 31 33 34 35 34 31 31 28 24 22 21 20
Wind_Direction
317 324 331 338 344 352 359 4 6 4 1 354 345 339 333 340 347 1 8 10 12 14 15 9 10 12 90 164 136 248 276 238 182 207 303 286 278 253 245 239 222 212 244 237 235 243 253 244 253 266 272 273 274 273
317 324 332 339 343 351 360 5 7 7 4 359 349 341 329 326 329 345 6 11 12 12 13 7 11 24 87 225 270 247 240 186 115 353 308 254 239 235 239 242 218 212 210 226 226 236 246 256 268 276 273 274 277 281
318 324 332 337 343 349 358 5 7 9 8 4 358 346 339 325 317 329 344 349 1 9 17 21 24 17 356 340 25 114 167 189 296 296 168 185 242 254 221 213 238 231 237 227 234 251 258 268 274 276 273 273 279 285
317 324 332 335 340 346 355 3 7 8 9 9 4 357 342 338 332 317 325 341 353 353 360 1 9 20 17 53 65 62 180 210 136 5 207 232 233 227 242 228 248 253 235 235 252 267 273 275 277 278 280 283 285 287
312 320 329 335 338 343 352 359 6 9 11 10 9 6 358 342 337 339 340 347 350 354 356 358 352 4 18 81 104 268 288 205 222 280 345 170 150 137 327 278 261 258 257 260 263 270 268 272 275 277 280 284 287 288
318 323 329 334 337 340 346 353 1 7 10 12 11 11 8 359 342 330 333 337 340 345 350 341 328 328 339 16 258 229 257 249 265 286 298 306 307 270 260 265 259 264 270 276 275 277 279 280 282 282 284 285 288 291
322 327 331 334 335 337 341 347 354 2 7 10 12 13 13 11 2 343 332 328 330 335 338 336 321 297 266 256 17 6 267 249 252 268 272 278 282 274 271 286 276 267 266 274 283 288 297 296 294 289 293 299 305 309
310 320 329 334 336 337 338 343 348 354 2 7 11 13 14 16 14 4 343 331 329 335 340 345 338 243 212 217 239 261 328 309 262 270 288 302 304 297 297 292 288 276 267 269 282 297 302 296 299 310 317 320 320 315
302 310 320 328 333 336 340 341 343 347 354 2 7 11 13 15 17 15 10 357 343 342 348 359 15 159 206 220 248 264 274 288 291 297 294 300 301 302 301 302 296 263 237 248 270 286 292 326 336 333 332 334 337 335
304 311 315 320 325 329 334 339 341 343 345 352 360 6 10 13 16 18 18 15 12 360 358 10 27 65 182 239 257 268 282 287 287 287 294 293 301 316 321 326 297 214 208 218 235 249 314 333 337 341 347 346 344 344
300 313 319 322 322 323 325 331 337 339 342 343 348 357 5 9 13 18 19 16 13 12 6 7 18 28 249 248 261 273 278 286 302 305 308 301 302 304 330 354 61 162 172 192 204 230 285 326 331 335 339 342 345 348
284 301 314 322 321 320 321 322 327 332 336 338 340 346 353 359 7 14 17 17 16 10 7 2 4 7 350 284 270 275 284 293 301 307 308 305 294 284 317 277 236 200 209 217 225 241 263 300 324 335 342 343 347 354
270 281 296 309 317 322 319 319 321 322 327 332 331 333 338 346 356 5 11 13 14 12 10 5 354 345 342 348 309 268 271 268 288 312 305 281 266 251 261 228 242 239 250 251 254 253 262 282 303 314 337 345 349 357
267 271 279 289 303 315 319 320 319 317 317 319 324 325 326 332 340 351 359 6 11 11 12 10 7 355 343 326 324 300 270 262 263 284 297 268 261 249 243 243 257 264 266 266 261 262 266 276 287 295 315 331 341 352
264 269 273 280 290 302 312 317 319 316 312 311 313 318 318 315 317 327 337 348 360 6 8 9 8 5 1 351 318 307 303 287 271 268 270 277 272 262 255 252 254 257 260 261 260 261 267 272 278 285 292 307 320 329
261 267 272 275 279 287 300 311 317 319 312 305 305 310 313 309 305 301 307 316 332 345 353 356 360 4 358 355 348 335 321 298 295 297 290 282 274 270 270 266 263 264 262 261 260 261 263 268 269 269 275 285 297 304
256 263 268 272 275 279 285 299 308 318 314 304 302 303 309 303 304 293 288 292 300 311 324 334 341 348 352 355 350 343 338 328 326 321 310 297 285 275 272 270 270 267 266 266 266 267 267 264 262 260 262 268 277 284
252 255 263 269 274 278 278 286 298 311 312 309 303 303 305 301 298 297 289 281 283 289 296 306 316 321 332 335 338 339 337 335 334 330 324 320 314 308 299 288 279 274 270 268 267 266 266 265 262 260 260 264 267 268
254 255 258 264 271 276 279 278 286 302 309 308 304 301 300 296 296 298 294 289 280 275 278 285 294 300 309 315 319 324 324 326 327 328 329 329 327 325 318 310 304 298 291 284 277 271 266 264 262 263 264 261 260 257
252 256 257 261 266 272 276 279 281 290 302 306 301 299 296 293 295 296 298 295 289 286 277 275 281 288 293 300 305 311 315 318 320 321 324 326 329 328 326 320 314 305 298 293 290 285 277 270 265 262 262 259 262 260
251 255 257 260 264 268 273 279 280 286 295 301 297 295 295 293 294 295 295 297 298 295 283 276 276 279 285 290 295 301 307 314 316 318 320 323 326 328 330 329 325 320 314 307 297 288 282 275 266 255 247 247 253 250
255 256 258 259 262 266 273 282 283 287 292 295 296 295 296 293 291 292 298 302 298 287 284 282 278 279 281 284 289 294 300 309 315 316 319 321 324 327 330 332 331 327 324 319 312 300 288 278 268 257 251 245 245 250
258 260 262 263 264 266 275 280 282 288 292 291 290 290 292 293 294 295 299 297 290 284 289 284 279 281 282 284 286 289 294 305 312 315 319 322 324 327 332 335 336 335 333 330 326 318 307 291 277 255 247 243 242 240
257 258 260 263 265 269 274 282 283 285 288 287 286 286 289 293 296 298 301 288 281 284 285 282 279 278 280 283 285 286 291 299 308 311 316 321 326 329 333 337 341 342 340 339 336 331 321 310 292 264 245 244 234 237
253 253 256 259 263 270 275 281 284 285 283 279 279 281 286 291 298 301 296 286 285 287 286 279 279 276 277 280 283 284 287 293 302 306 314 320 328 332 334 337 343 345 345 344 342 338 327 318 298 277 261 252 243 238
251 255 259 261 265 272 278 282 283 280 274 273 273 277 284 290 295 296 296 287 287 294 301 297 286 278 276 276 279 281 283 289 298 302 311 318 328 333 334 336 343 347 348 347 345 341 333 325 310 282 262 252 255 253
251 258 261 262 269 274 274 276 275 271 268 268 271 277 285 289 284 282 288 286 283 284 286 288 289 279 274 273 274 278 279 285 294 299 306 315 326 332 334 337 343 348 350 349 347 343 335 328 320 302 273 266 265 262
254 258 265 268 269 270 271 270 267 265 265 268 272 279 284 279 277 281 286 289 291 290 281 275 277 274 269 267 268 273 277 282 291 297 302 310 323 330 334 336 341 348 351 350 348 345 339 330 324 311 295 279 274 268
257 260 262 264 265 266 264 262 261 263 267 271 277 280 273 268 276 277 284 294 300 302 290 270 260 263 263 261 262 269 274 280 289 295 299 305 317 327 330 334 338 345 350 351 349 347 342 334 327 322 307 289 274 266
257 257 257 256 255 254 255 258 261 265 268 272 273 272 273 273 272 275 279 283 296 298 296 277 247 252 256 252 257 265 270 278 288 294 297 302 312 322 327 329 334 340 347 351 350 347 346 339 329 322 318 306 283 264
244 243 245 248 250 252 255 258 261 263 267 271 275 276 274 272 273 274 275 272 279 293 289 268 254 256 253 249 255 261 267 277 286 293 295 300 309 317 323 325 327 335 342 348 350 347 346 342 333 323 316 309 303 286
239 241 244 245 247 251 255 259 261 265 270 271 272 273 276 277 275 271 269 270 268 279 279 271 263 256 249 249 252 257 264 275 288 292 294 298 305 311 317 321 322 327 335 342 348 349 344 343 337 325 315 308 301 293
244 246 248 250 251 254 257 261 264 268 271 272 273 274 274 275 273 269 267 270 269 268 269 265 256 249 248 250 251 256 260 277 290 290 291 296 301 306 313 319 319 321 328 334 341 346 345 341 338 331 320 311 305 299
Height
5508 5505 5501 5496 5491 5486 5479 5471 5463 5455 5447 5438 5432 5428 5425 5421 5417 5412 5407 5401 5396 5392 5387 5383 5380 5377 5376 5378 5381 5383 5385 5385 5387 5389 5390 5390 5391 5392 5393 5395 5397 5401 5403 5404 5406 5407 5409 5409 5409 5411 5410 5408 5407 5406
5503 5500 5496 5492 5488 5482 5476 5469 5461 5454 5446 5437 5430 5426 5422 5419 5416 5412 5408 5403 5398 5393 5389 5385 5382 5379 5379 5379 5380 5380 5382 5383 5384 5387 5387 5387 5389 5389 5390 5392 5393 5396 5398 5400 5402 5402 5402 5402 5402 5402 5401 5400 5399 5398
5498 5495 5492 5489 5484 5479 5473 5467 5460 5453 5446 5437 5429 5423 5419 5416 5413 5411 5407 5404 5400 5395 5392 5388 5384 5382 5380 5379 5379 5380 5382 5383 5384 5385 5386 5386 5388 5389 5389 5390 5391 5392 5393 5395 5397 5397 5396 5396 5395 5395 5394 5394 5392 5390
5493 5491 5488 5485 5481 5476 5470 5464 5458 5452 5445 5437 5430 5422 5417 5414 5411 5408 5406 5403 5399 5396 5393 5390 5386 5383 5381 5380 5380 5381 5382 5383 5384 5385 5385 5386 5386 5387 5388 5388 5389 5390 5390 5391 5392 5391 5391 5390 5389 5388 5387 5385 5383 5380
5489 5486 5483 5480 5476 5472 5467 5462 5457 5451 5444 5437 5430 5423 5416 5411 5409 5406 5404 5401 5398 5397 5393 5390 5387 5385 5383 5382 5382 5382 5383 5383 5384 5385 5385 5385 5385 5386 5386 5386 5386 5386 5387 5387 5387 5386 5384 5383 5381 5380 5379 5377 5375 5372
5484 5482 5479 5476 5473 5469 5465 5460 5455 5449 5443 5437 5430 5423 5416 5410 5406 5404 5402 5399 5397 5394 5391 5389 5386 5385 5384 5383 5382 5382 5383 5383 5384 5384 5384 5384 5384 5384 5383 5382 5381 5382 5381 5381 5380 5379 5378 5376 5374 5372 5371 5369 5366 5363
5479 5477 5475 5472 5469 5466 5462 5458 5453 5448 5442 5436 5430 5424 5417 5411 5405 5402 5400 5398 5395 5392 5389 5385 5383 5382 5382 5383 5382 5382 5382 5382 5382 5382 5382 5382 5381 5380 5380 5378 5377 5376 5376 5376 5375 5374 5372 5370 5369 5367 5365 5363 5360 5356
5474 5473 5470 5468 5465 5463 5459 5455 5451 5446 5441 5435 5430 5424 5418 5412 5406 5401 5397 5395 5393 5390 5387 5382 5378 5377 5380 5381 5382 5382 5381 5381 5381 5381 5380 5379 5378 5375 5375 5373 5371 5370 5371 5371 5371 5370 5369 5367 5365 5364 5362 5359 5355 5350
5470 5468 5466 5464 5462 5459 5456 5452 5448 5444 5440 5435 5429 5424 5419 5414 5407 5402 5397 5393 5391 5389 5385 5381 5377 5377 5378 5380 5380 5381 5380 5380 5380 5379 5377 5377 5374 5372 5369 5366 5363 5362 5364 5366 5368 5367 5366 5365 5363 5361 5358 5355 5350 5345
5465 5463 5461 5459 5457 5455 5452 5449 5445 5441 5438 5433 5429 5424 5419 5414 5408 5403 5398 5394 5389 5387 5384 5382 5379 5378 5379 5378 5378 5379 5378 5377 5377 5377 5375 5373 5370 5368 5365 5360 5355 5356 5360 5363 5364 5365 5364 5362 5360 5358 5355 5351 5346 5340
5459 5458 5457 5455 5452 5450 5447 5445 5442 5438 5435 5432 5427 5423 5419 5414 5410 5404 5399 5395 5391 5387 5384 5382 5380 5378 5377 5377 5376 5376 5375 5374 5373 5373 5371 5369 5368 5365 5363 5360 5358 5358 5360 5361 5362 5362 5361 5360 5358 5355 5352 5348 5343 5336
5454 5453 5452 5450 5448 5445 5443 5440 5438 5435 5431 5428 5425 5421 5418 5414 5410 5405 5400 5396 5392 5388 5384 5381 5379 5377 5375 5374 5374 5373 5372 5371 5369 5369 5367 5366 5365 5363 5362 5361 5360 5360 5360 5360 5360 5359 5359 5357 5356 5353 5350 5346 5341 5335
5448 5448 5446 5445 5443 5441 5438 5435 5433 5430 5427 5424 5421 5418 5416 5413 5409 5405 5401 5396 5392 5388 5384 5381 5378 5376 5373 5372 5370 5369 5368 5368 5367 5365 5363 5363 5361 5361 5360 5360 5360 5359 5359 5358 5357 5357 5355 5354 5353 5351 5348 5344 5341 5335
5442 5442 5441 5439 5438 5436 5433 5430 5428 5426 5423 5420 5417 5414 5411 5409 5406 5403 5400 5396 5393 5389 5385 5381 5377 5375 5372 5370 5368 5366 5366 5364 5363 5362 5360 5359 5358 5358 5357 5357 5357 5356 5355 5354 5353 5352 5352 5350 5349 5347 5345 5342 5340 5336
5436 5436 5434 5434 5433 5431 5428 5425 5423 5420 5418 5415 5413 5410 5406 5404 5402 5400 5397 5395 5391 5388 5385 5381 5377 5374 5371 5368 5365 5364 5362 5360 5359 5357 5356 5354 5353 5352 5352 5351 5351 5350 5349 5348 5347 5347 5346 5345 5344 5342 5341 5339 5337 5335
5428 5428 5427 5427 5427 5426 5423 5421 5418 5415 5413 5410 5407 5404 5402 5399 5397 5395 5393 5391 5388 5386 5383 5380 5376 5373 5370 5367 5364 5361 5358 5356 5354 5351 5350 5349 5348 5347 5346 5344 5343 5342 5341 5340 5339 5338 5338 5337 5337 5336 5335 5334 5333 5332
5419 5420 5419 5419 5419 5419 5417 5415 5412 5411 5406 5404 5402 5399 5397 5395 5393 5390 5387 5386 5384 5382 5380 5376 5374 5371 5368 5365 5362 5359 5356 5353 5349 5347 5344 5342 5341 5339 5337 5336 5334 5333 5332 5330 5329 5328 5328 5327 5326 5327 5327 5326 5326 5326
5410 5410 5410 5410 5410 5410 5410 5409 5406 5405 5401 5398 5395 5393 5391 5389 5387 5385 5383 5380 5379 5377 5375 5373 5370 5367 5365 5363 5360 5357 5353 5350 5346 5343 5340 5336 5333 5331 5328 5326 5323 5321 5320 5318 5317 5316 5316 5316 5316 5315 5316 5317 5317 5318
5399 5400 5401 5401 5401 5401 5401 5402 5400 5398 5395 5391 5387 5386 5385 5382 5380 5378 5377 5375 5373 5371 5369 5367 5365 5364 5360 5358 5355 5353 5350 5347 5343 5339 5335 5332 5328 5324 5320 5316 5313 5309 5306 5303 5301 5300 5299 5300 5301 5301 5302 5304 5306 5307
5388 5390 5391 5391 5391 5391 5391 5393 5391 5389 5387 5385 5380 5377 5377 5375 5373 5371 5370 5368 5366 5364 5362 5360 5359 5357 5355 5353 5350 5348 5345 5342 5339 5336 5331 5327 5323 5318 5313 5309 5304 5299 5294 5290 5286 5283 5281 5281 5282 5284 5286 5288 5291 5294
5377 5379 5380 5381 5381 5382 5382 5382 5381 5381 5379 5377 5373 5369 5369 5367 5365 5363 5362 5361 5359 5358 5355 5352 5351 5350 5348 5347 5344 5342 5339 5337 5334 5331 5327 5322 5317 5312 5307 5301 5295 5289 5283 5277 5272 5268 5265 5264 5265 5266 5270 5273 5275 5278
5367 5368 5369 5369 5370 5371 5372 5372 5372 5371 5370 5367 5364 5361 5359 5360 5358 5355 5355 5353 5352 5349 5347 5344 5343 5342 5341 5339 5338 5336 5333 5331 5328 5325 5321 5317 5312 5307 5301 5294 5288 5281 5273 5265 5259 5254 5249 5247 5247 5249 5251 5255 5259 5264
5356 5357 5358 5359 5360 5361 5364 5363 5362 5361 5360 5358 5354 5352 5350 5350 5350 5348 5347 5345 5341 5338 5339 5337 5335 5334 5333 5332 5331 5329 5327 5324 5322 5318 5315 5311 5306 5300 5294 5288 5280 5272 5264 5255 5248 5241 5236 5232 5231 5232 5235 5240 5245 5250
5343 5345 5346 5347 5349 5349 5351 5352 5352 5351 5351 5348 5344 5341 5339 5340 5340 5338 5338 5334 5329 5330 5330 5329 5327 5326 5325 5324 5323 5321 5319 5317 5315 5312 5308 5304 5299 5294 5288 5281 5273 5264 5256 5247 5238 5231 5227 5224 5222 5222 5224 5228 5232 5238
5331 5333 5334 5336 5338 5340 5340 5341 5340 5340 5340 5337 5334 5331 5330 5330 5330 5329 5325 5322 5321 5320 5320 5319 5319 5318 5317 5316 5315 5313 5312 5310 5308 5305 5302 5298 5293 5288 5281 5275 5267 5259 5250 5241 5233 5226 5222 5219 5216 5216 5217 5219 5222 5226
5317 5320 5323 5325 5327 5329 5330 5329 5329 5328 5327 5324 5322 5320 5320 5321 5321 5319 5317 5315 5314 5313 5313 5312 5311 5309 5308 5307 5306 5305 5304 5303 5301 5298 5295 5292 5287 5281 5275 5269 5262 5254 5245 5236 5228 5223 5218 5214 5212 5210 5211 5212 5213 5216
5305 5309 5311 5314 5317 5317 5317 5317 5317 5316 5314 5312 5311 5311 5311 5311 5312 5311 5309 5308 5307 5306 5305 5303 5302 5301 5300 5299 5298 5297 5296 5295 5294 5291 5288 5285 5281 5276 5270 5263 5256 5249 5240 5233 5225 5219 5215 5211 5208 5206 5205 5205 5206 5208
5296 5299 5302 5304 5303 5303 5304 5304 5304 5303 5302 5300 5300 5301 5301 5302 5302 5300 5299 5297 5296 5295 5293 5292 5292 5291 5290 5290 5289 5289 5288 5288 5286 5284 5281 5278 5275 5270 5264 5258 5252 5245 5237 5230 5223 5217 5212 5208 5205 5202 5201 5200 5201 5201
5285 5289 5290 5290 5290 5290 5291 5291 5291 5290 5290 5291 5292 5292 5292 5292 5291 5288 5288 5286 5283 5282 5280 5280 5281 5281 5281 5281 5281 5280 5280 5280 5279 5277 5274 5272 5268 5264 5259 5253 5247 5241 5234 5227 5221 5215 5209 5205 5201 5198 5196 5195 5195 5196
5273 5274 5275 5276 5277 5278 5279 5278 5279 5279 5280 5281 5281 5282 5282 5282 5279 5278 5278 5277 5274 5272 5271 5270 5270 5271 5271 5272 5272 5273 5273 5273 5271 5270 5267 5265 5262 5258 5253 5248 5243 5237 5231 5225 5218 5213 5207 5203 5199 5195 5193 5191 5190 5190
5259 5260 5262 5263 5266 5266 5266 5267 5269 5269 5270 5270 5270 5270 5270 5269 5270 5268 5267 5266 5265 5264 5263 5262 5262 5262 5262 5263 5264 5265 5265 5265 5264 5262 5260 5257 5255 5251 5247 5242 5238 5232 5227 5221 5216 5210 5204 5200 5195 5192 5189 5187 5185 5184
5248 5250 5252 5253 5254 5255 5256 5257 5257 5258 5260 5260 5259 5258 5257 5256 5257 5257 5255 5254 5255 5256 5254 5254 5254 5254 5254 5255 5256 5256 5257 5257 5256 5254 5252 5250 5247 5244 5240 5236 5232 5227 5222 5217 5212 5206 5201 5196 5192 5188 5185 5182 5180 5178
5236 5237 5239 5241 5243 5245 5245 5246 5247 5248 5248 5247 5247 5247 5246 5246 5246 5246 5245 5244 5245 5246 5245 5245 5246 5246 5247 5247 5248 5249 5249 5249 5248 5246 5244 5242 5240 5237 5234 5230 5226 5221 5217 5213 5208 5203 5197 5192 5188 5183 5179 5176 5174 5172